This is the latest recevied weather packets stored in our database for station/object VE3TEJ. If no packets are shown the sender has not sent any weather packets the latest 10 day(s).
| Time | Temp. | Humidity | Pressure | Rain* | Wind** | Luminosity | Snow |
|---|---|---|---|---|---|---|---|
| 1777947847 | 16.67° C | 69% | 1001 hPa | 0 mm | - | - | - |
| 1777947549 | 16.67° C | 69% | 1000.8 hPa | 0 mm | - | - | - |
| 1777947248 | 16.67° C | 69% | 1000.9 hPa | 0 mm | - | - | - |
| 1777946948 | 16.67° C | 68% | 1000.7 hPa | 0 mm | - | - | - |
| 1777946647 | 16.67° C | 68% | 1000.8 hPa | 0 mm | - | - | - |
| 1777946347 | 16.11° C | 69% | 1000.7 hPa | 0 mm | - | - | - |
| 1777946049 | 16.67° C | 68% | 1000.6 hPa | 0 mm | - | - | - |
| 1777945748 | 16.11° C | 67% | 1000.5 hPa | 0 mm | - | - | - |
| 1777945448 | 16.11° C | 68% | 1000.6 hPa | 0 mm | - | - | - |
| 1777945147 | 16.11° C | 68% | 1000.3 hPa | 0 mm | - | - | - |
| 1777944849 | 15.56° C | 68% | 999.8 hPa | 0 mm | - | - | - |
| 1777944548 | 15.56° C | 69% | 999.6 hPa | 0 mm | - | - | - |
| 1777944248 | 15.56° C | 69% | 999.7 hPa | 0 mm | - | - | - |
| 1777943948 | 15.56° C | 69% | 999.7 hPa | 0 mm | - | - | - |
| 1777943647 | 15.56° C | 69% | 999.7 hPa | 0 mm | - | - | - |
| 1777943349 | 15.56° C | 69% | 999.7 hPa | 0 mm | - | - | - |
| 1777943048 | 15.56° C | 68% | 999.9 hPa | 0 mm | - | - | - |
| 1777942748 | 15.56° C | 67% | 999.8 hPa | 0 mm | - | - | - |
| 1777942447 | 16.11° C | 66% | 999.7 hPa | 0 mm | - | - | - |
| 1777942147 | 16.11° C | 65% | 999.6 hPa | 0 mm | - | - | - |
| 1777941849 | 16.67° C | 64% | 999.6 hPa | 0 mm | - | - | - |
| 1777941548 | 16.67° C | 63% | 999.6 hPa | 0 mm | - | - | - |
| 1777941248 | 17.22° C | 62% | 999.7 hPa | 0 mm | - | - | - |
| 1777940949 | 17.78° C | 62% | 999.7 hPa | 0 mm | - | - | - |
| 1777940648 | 17.78° C | 62% | 999.9 hPa | 0 mm | - | - | - |
* Rain latest hour (hover to see other rain measurements)
** Current wind speed in m/s (hover to see current wind gust speed)